Regional Weather Roundup
Issued by NWS

Home | Current Version | Previous Version | Graphics & Text | Print | Product List | Glossary On
Versions: 1 2 3 4 5 6 7 8 9 10 11 12 13 14 15 16 17 18 19 20 21 22 23 24 25 26 27 28 29 30 31 32 33 34 35 36 37 38 39 40 41 42 43 44 45 46 47 48 49 50
000
ASUS43 KFSD 231510
RWRSD

WEATHER ROUNDUP FOR SOUTH DAKOTA
NATIONAL WEATHER SERVICE SIOUX FALLS SD
1000 AM CDT WED APR 23 2014

NOTE: "FAIR" INDICATES FEW OR NO CLOUDS BELOW 12,000 FEET WITH NO
SIGNIFICANT WEATHER AND/OR OBSTRUCTIONS TO VISIBILITY.


SDZ001>005-009-010-012>017-231600-
NORTHWEST AND NORTH CENTRAL SOUTH DAKOTA

CITY           SKY/WX    TMP DP  RH WIND       PRES   REMARKS
BUFFALO          N/A     54  44  69 W21       29.41R
MOBRIDGE       PTSUNNY   53  37  54 SE38G48   29.54F
$$

SDZ012>016-024>037-041>051-057-063-072>074-231600-
SOUTHWEST AND SOUTH CENTRAL SOUTH DAKOTA

CITY           SKY/WX    TMP DP  RH WIND       PRES   REMARKS
RAPID CTY ARPT CLOUDY    59  46  62 E9        29.45S
PIERRE         CLOUDY    53  37  54 SE21G28   29.52F
CUSTER         CLOUDY    51  31  46 W23G29    29.56F
ELLSWORTH AFB  CLOUDY    63  42  46 NW5       29.45S
PHILIP         CLOUDY    59  43  55 E12       29.46S
PINE RIDGE     CLOUDY    60  42  51 SW12      29.54R
SPEARFISH      FAIR      59  32  36 W8G22     29.51R
WINNER         FAIR      62  38  40 S25G36    29.54F
$$

SDZ004>011-016>023-039-040-231600-
NORTHEAST SOUTH DAKOTA

CITY           SKY/WX    TMP DP  RH WIND       PRES   REMARKS
ABERDEEN       LGT RAIN  47  41  80 SE28G40   29.69F
WATERTOWN      LGT RAIN  44  38  79 SE14G26   29.83F
SISSETON         N/A     43  39  86 SE23      29.85F
$$

SDZ017-020-022-023-036>040-048>070-231600-
SOUTHEAST SOUTH DAKOTA

CITY           SKY/WX    TMP DP  RH WIND       PRES   REMARKS
SIOUX FALLS    CLOUDY    51  34  52 SE23G37   29.81F
HURON          CLOUDY    56  35  45 SE30G43   29.69F
CHAMBERLAIN      N/A     57  37  47 SE30G40   29.59S
MITCHELL       CLOUDY    54  36  50 SE29G49   29.68F
YANKTON        CLOUDY    55  36  47 SE29G44   29.74F
$$

ABBREVIATIONS USED IN REMARKS
   TC - TEMPERATURE IN CELSIUS
  WCI - WIND CHILL INDEX
   HX - HEAT INDEX
  VSB - VISIBILITY




USA.gov is the U.S. government's official web portal to all federal, state and local government web resources and services.